Location: Madrid
(40.4000°N, 3.6830°W)
Time: 13:02:41
(UTC+02:00)

ISS - Pass Details

Date: 28 May 2020
Orbit: 417 x 419 km, 51.6° (Epoch: 31 May)

Event Time Altitude Azimuth Distance (km) Brightness Sun altitude
Rises 23:08:12 0° 312° (NW) 2,366 2.0 -14.6°
Reaches altitude 10° 23:10:36 10° 328° (NNW) 1,501 0.4 -15.0°
Maximum altitude 23:13:20 23° 22° (NNE) 956 -1.7 -15.3°
Enters shadow 23:15:39 12° 72° (ENE) 1,364 -1.4 -15.6°
